Probability
0 0 0 0 0 0 0 0 0 0 0 0 0 0 0 0 0 0 0 0 0 0 0 0 0 0 0 0 0 0 0 0 0 0 0 0 0 0 0 0 0 0 0
0 0 0 0 0 0 0 0 0 0 0 0 0 0 0 0 0 0 0 0 0 0 0 0 0 0 0 0 0 0 0 0 0 0 0 0 0 0 0 0 0 0 0
0 0 0 0 0 0 0 0 0 0 0 0 0 0 0 0 0 0 0 0 0 0 0 0 0 0 0 0 0 0 0 0 0 0 0 0 0 0 0 0 0 0 0
0 0 0 0 0 0 0 0 0 0 0 0 0 0 0 0 0 0 0 0 0 0 0 0 0 0 0 0 0 0 0 0 0 0 0 0 0 0 0 0 0 0 0
0 0 0 0 0 0 0 0 0 0 0 0 0 0 0 0 0 0 0 0 0 0 0 0 0 0 0 0 0 0 0 0 0 0 0 0 0 0 0 0 0 0 0
0 0 0 0 0 0 0 0 0 0 0 0 0 0 0 0 0 0 0 0 0 0 0 0 0 0 0 0 0 0 0 0 0 0 0 0 0 0 0 0 0 0 0
0 0 0 0 0 0 0 0 0 0 0 0 0 0 0 0 0 0 0 0 0 0 0 0 0 0 0 0 0 0 0 0 0 0 0 0 0 0 0 0 0 0 0
0 0 0 0 0 0 0 0 0 0 0 0 0 0 0 0 0 0 0 0 0 0 0 0 0 0 0 0 0 0 0 0 0 0 0 0 0 0 0 0 0 0 0
0 0 0 0 0 0 0 0 0 0 0 0 0 0 0 0 0 0 0 0 0 0 0 0 0 0 0 0 0 0 0 0 0 0 0 0 0 0 0 0 0 0 0
0 0 0 0 0 0 0 0 0 0 0 0 0 0 0 0 0 0 0 0 0 0 0 0 0 0 0 0 0 0 0 0 0 0 0 0 0 0 0 0 0 0 0
0 0 0 0 0 0 0 0 0 0 0 0 0 0 0 0 0 0 0 0 0 0 0 0 0 0 0 0 0 0 0 0 0 0 0 0 0 0 0 0 0 0 0
0 0 0 0 0 0 0 0 0 0 0 0 0 0 0 0 0 0 0 0 0 0 0 0 0 0 0 0 0 0 0 0 0 0 0 0 0 0 0 0 0 0 0
0 0 0 0 0 0 0 0 0 0 0 0 0 0 0 0 0 0 0 0 0 0 0 0 0 0 0 0 0 0 0 0 0 0 0 0 0 0 0 0 0 0 0
0 0 0 0 0 0 0 0 0 0 0 0 0 0 0 0 0 0 0 0 0 0 0 0 0 0 0 0 0 0 0 0 0 0 0 0 0 0 0 0 0 0 0
0 0 0 0 0 0 0 0 0 0 0 0 0 0 0 0 0 0 0 0 0 0 0 0 0 0 0 0 0 0 0 0 0 0 0 0 0 0 0 0 0 0 0
0 0 0 0 0 0 0 0 0 0 0 0 0 0 0 0 0 0 0 0 0 0 0 0 0 0 0 0 0 0 0 0 0 0 0 0 0 0 0 0 0 0 0
0 0 0 0 0 0 0 0 0 0 0 0 0 0 0 0 0 0 0 0 0 0 0 0 0 0 0 0 0 0 0 0 0 0 0 0 0 0 0 0 0 0 0
0 0 0 0 0 0 0 0 0 0 0 0 0 0 0 0 0 0 0 0 0 0 0 0 0 0 0 0 0 0 0 0 0 0 0 0 0 0 0 0 0 0 0
0 0 0 0 0 0 0 0 0 0 0 0 0 0 0 0 0 0 0 0 0 0 0 0 0 0 0 0 0 0 0 0 0 0 0 0 0 0 0 0 0 0 0
0 0 0 0 0 0 0 0 0 0 0 0 0 0 0 0 0 0 0 0 0 0 0 0 0 0 0 0 0 0 0 0 0 0 0 0 0 0 0 0 0 0 0
0 0 0 0 0 0 0 0 0 0 0 0 0 0 0 0 0 0 0 0 0 0 0 0 0 0 0 0 0 0 0 0 0 0 0 0 0 0 0 0 0 0 0
0 0 0 0 0 0 0 0 0 0 0 0 0 0 0 0 0 0 0 0 0 0 0 0 0 0 0 0 0 0 0 0 0 0 0 0 0 0 0 0 0 0 0
0 0 0 0 0 0 0 0 0 0 0 0 0 0 0 0 0 0 0 0 0 0 0 0 0 0 0 0 0 0 0 0 0 0 0 0 0 0 0 0 0 0 0
0 0 0 0 0 0 0 0 0 0 0 0 0 0 0 0 0 0 0 0 0 0 0 0 0 0 0 0 0 0 0 0 0 0 0 0 0 0 0 0 0 0 0
0 0 0 0 0 0 0 0 0 0 0 0 0 0 0 0 0 0 0 0 0 0 0 0 0 0 0 0 0 0 0 0 0 0 0 0 0 0 0 0 0 0 0
0 0 0 0 0 0 0 0 0 0 0 0 0 0 0 0 0 0 0 0 0 0 0 0 0 0 0 0 0 0 0 0 0 0 0 0 0 0 0 0 0 0 0
Height
5795 5798 5800 5803 5806 5809 5811 5814 5816 5819 5822 5824 5826 5827 5829 5830 5832 5833 5833 5834 5835 5835 5835 5835 5835 5835 5835 5834 5833 5832 5831 5830 5829 5827 5826 5824 5822 5820 5818 5816 5814 5811 5809
5786 5790 5793 5795 5798 5801 5804 5806 5809 5812 5815 5817 5819 5821 5822 5824 5825 5826 5827 5828 5828 5829 5829 5830 5829 5829 5829 5828 5827 5827 5826 5824 5823 5822 5820 5818 5817 5815 5813 5811 5809 5806 5804
5778 5782 5784 5787 5790 5793 5795 5798 5801 5804 5807 5810 5811 5813 5815 5817 5818 5819 5820 5821 5822 5822 5823 5823 5823 5823 5823 5822 5821 5820 5819 5818 5817 5816 5814 5813 5811 5809 5808 5806 5804 5801 5799
5769 5773 5776 5779 5781 5784 5787 5790 5793 5796 5799 5801 5803 5805 5808 5809 5811 5812 5813 5814 5815 5815 5815 5816 5816 5816 5816 5815 5815 5814 5813 5812 5811 5809 5808 5806 5805 5803 5802 5800 5798 5796 5793
5760 5764 5767 5770 5773 5775 5778 5782 5785 5788 5790 5793 5795 5797 5799 5801 5803 5804 5805 5806 5807 5807 5808 5808 5808 5808 5808 5808 5807 5807 5806 5805 5803 5802 5801 5800 5798 5797 5795 5794 5792 5789 5787
5751 5754 5757 5761 5764 5767 5770 5773 5776 5779 5781 5784 5786 5789 5791 5793 5794 5796 5797 5798 5799 5799 5800 5800 5800 5800 5800 5800 5800 5799 5798 5797 5796 5795 5794 5792 5791 5790 5789 5787 5785 5783 5781
5741 5745 5748 5751 5755 5758 5761 5764 5766 5769 5772 5774 5777 5780 5782 5784 5786 5787 5788 5789 5790 5790 5791 5791 5791 5792 5792 5792 5791 5791 5790 5789 5788 5788 5786 5785 5784 5783 5782 5780 5779 5777 5774
5732 5735 5739 5742 5746 5749 5752 5754 5757 5760 5762 5765 5768 5770 5772 5775 5776 5777 5778 5779 5780 5781 5782 5782 5783 5783 5783 5783 5783 5782 5782 5781 5780 5780 5779 5778 5777 5776 5775 5773 5772 5770 5768
5722 5726 5729 5733 5736 5740 5743 5746 5748 5750 5753 5756 5758 5760 5763 5765 5767 5768 5769 5770 5771 5772 5772 5773 5773 5773 5774 5774 5774 5774 5773 5773 5772 5772 5771 5770 5770 5769 5768 5766 5764 5763 5760
5713 5717 5720 5723 5727 5730 5733 5736 5738 5741 5743 5745 5748 5750 5753 5755 5756 5758 5760 5760 5761 5762 5763 5764 5764 5764 5764 5764 5764 5764 5764 5764 5764 5763 5763 5763 5762 5761 5760 5758 5757 5755 5753
5704 5707 5711 5714 5717 5720 5723 5726 5728 5731 5733 5736 5738 5740 5742 5744 5746 5747 5749 5750 5751 5752 5753 5754 5754 5755 5754 5755 5755 5755 5755 5755 5755 5755 5754 5754 5754 5753 5752 5750 5749 5747 5745
5695 5698 5701 5704 5708 5710 5713 5716 5718 5721 5723 5725 5727 5729 5731 5733 5736 5737 5738 5739 5740 5742 5742 5743 5744 5744 5744 5745 5745 5745 5745 5745 5745 5745 5745 5745 5744 5744 5743 5741 5740 5739 5737
5686 5689 5692 5695 5698 5701 5703 5706 5708 5710 5712 5715 5717 5719 5720 5722 5724 5725 5726 5728 5729 5731 5731 5732 5733 5733 5734 5734 5734 5735 5735 5735 5735 5735 5735 5735 5734 5734 5733 5732 5731 5730 5728
5677 5680 5683 5686 5688 5691 5693 5695 5698 5700 5702 5704 5706 5708 5709 5711 5713 5714 5715 5716 5717 5719 5720 5722 5722 5722 5723 5723 5723 5724 5724 5724 5725 5725 5725 5724 5724 5724 5723 5722 5721 5720 5719
5669 5672 5675 5677 5679 5681 5683 5685 5687 5689 5690 5692 5694 5696 5698 5699 5701 5702 5703 5704 5706 5707 5709 5710 5710 5711 5711 5711 5712 5712 5713 5713 5713 5713 5713 5713 5713 5713 5713 5712 5712 5711 5710
5662 5664 5666 5668 5670 5672 5674 5675 5676 5678 5679 5680 5682 5684 5686 5687 5688 5689 5691 5692 5693 5694 5696 5698 5698 5699 5699 5699 5700 5700 5701 5701 5701 5701 5702 5702 5702 5702 5702 5702 5702 5701 5701
5656 5657 5658 5659 5660 5662 5663 5664 5665 5666 5667 5668 5670 5671 5673 5674 5675 5676 5677 5679 5680 5681 5682 5684 5684 5685 5685 5687 5687 5688 5688 5689 5689 5689 5690 5690 5691 5691 5691 5692 5692 5691 5691
5649 5650 5651 5651 5651 5651 5652 5653 5653 5654 5655 5655 5657 5658 5659 5660 5661 5662 5663 5665 5666 5667 5668 5670 5671 5671 5672 5673 5674 5675 5675 5676 5676 5677 5678 5678 5679 5680 5680 5681 5681 5681 5681
5641 5641 5641 5641 5641 5641 5641 5641 5641 5642 5642 5642 5643 5644 5645 5645 5646 5647 5649 5650 5651 5652 5653 5655 5656 5657 5659 5660 5661 5661 5662 5663 5663 5664 5665 5666 5667 5668 5669 5670 5670 5670 5670
5633 5633 5632 5631 5630 5630 5629 5629 5628 5628 5628 5629 5629 5629 5630 5630 5631 5632 5633 5634 5635 5636 5637 5639 5641 5642 5644 5645 5646 5648 5648 5649 5651 5652 5653 5654 5655 5656 5657 5658 5659 5659 5659
5624 5623 5621 5620 5619 5617 5616 5615 5615 5614 5614 5614 5613 5613 5613 5614 5614 5615 5616 5617 5618 5620 5621 5622 5624 5626 5628 5630 5632 5633 5634 5635 5637 5639 5640 5641 5643 5644 5646 5646 5647 5648 5648
5613 5611 5609 5608 5606 5604 5602 5601 5600 5599 5598 5597 5597 5596 5595 5596 5596 5597 5598 5599 5600 5602 5604 5605 5607 5609 5612 5614 5615 5617 5619 5621 5624 5626 5627 5629 5630 5632 5633 5634 5635 5636 5637
5600 5598 5595 5593 5591 5588 5586 5584 5582 5580 5579 5578 5577 5577 5577 5576 5576 5577 5578 5579 5581 5582 5584 5587 5589 5591 5594 5596 5598 5601 5603 5606 5609 5611 5613 5616 5617 5619 5621 5622 5624 5625 5626
5586 5583 5579 5576 5573 5570 5567 5564 5561 5559 5558 5557 5556 5556 5556 5556 5555 5556 5557 5558 5560 5562 5564 5566 5569 5572 5575 5577 5581 5584 5587 5590 5593 5596 5599 5602 5604 5606 5608 5610 5612 5613 5614
5569 5565 5561 5557 5553 5549 5545 5542 5539 5537 5536 5535 5533 5533 5533 5533 5533 5533 5534 5536 5538 5541 5542 5545 5548 5551 5555 5558 5562 5565 5569 5573 5577 5581 5584 5588 5590 5593 5595 5597 5599 5601 5603
5549 5544 5540 5534 5530 5525 5521 5517 5514 5513 5512 5511 5510 5509 5508 5508 5508 5507 5508 5511 5514 5517 5519 5522 5526 5530 5534 5538 5542 5547 5552 5556 5560 5565 5569 5573 5576 5579 5582 5585 5587 5590 5592
Wind_Speed
41 41 41 41 42 41 39 39 38 37 36 34 33 32 31 30 30 29 29 29 29 28 28 28 28 28 28 28 29 29 30 30 30 30 29 29 29 28 28 28 28 28 28
43 42 42 42 43 43 42 41 40 39 38 36 35 34 33 32 31 31 31 31 31 31 30 30 30 31 31 30 30 31 32 32 31 31 31 30 29 29 29 28 28 28 29
44 44 44 43 43 44 44 44 42 41 40 38 37 36 35 34 34 33 32 32 32 32 32 32 32 32 32 32 32 33 33 33 33 32 32 31 30 30 29 29 29 29 30
44 44 44 45 44 45 46 45 44 43 42 40 39 38 38 37 36 36 35 35 34 34 34 35 34 34 34 34 34 34 34 34 34 34 33 33 32 31 30 29 29 30 31
45 45 46 46 46 47 46 46 45 44 43 43 42 41 40 40 39 38 38 37 37 36 36 36 36 36 36 36 36 36 36 36 36 35 35 33 32 31 30 30 31 31 32
47 46 47 48 49 48 47 47 46 46 45 45 44 43 42 42 42 41 40 40 39 39 39 39 38 38 39 39 38 38 38 37 37 36 35 33 32 31 31 31 31 32 33
49 47 48 48 48 48 47 47 49 48 47 47 46 44 43 43 42 41 41 40 40 41 41 40 39 40 40 40 39 39 38 38 37 36 35 34 33 32 32 32 32 33 34
50 48 47 48 48 47 47 48 49 48 47 47 46 45 44 44 43 43 43 42 42 41 41 40 40 40 40 41 41 40 39 39 37 36 35 34 33 32 32 32 33 34 35
49 49 48 48 48 47 47 48 48 48 48 47 46 46 45 44 44 44 43 42 42 41 40 41 41 41 41 41 41 40 39 38 37 36 35 34 34 33 34 34 35 35 36
48 47 48 48 48 47 48 49 48 47 48 48 48 48 47 46 45 45 44 43 42 42 43 44 43 42 42 41 40 39 39 38 37 36 35 35 35 35 36 36 36 36 36
47 46 46 46 47 47 48 48 49 49 49 49 50 50 49 47 46 46 45 45 45 44 44 43 43 42 42 42 41 40 40 39 38 37 36 36 37 37 37 38 37 37 38
46 46 45 45 46 47 48 49 48 48 50 51 51 51 50 49 48 48 48 48 47 46 44 43 43 41 41 42 42 41 40 40 39 39 38 37 38 39 40 40 39 39 39
42 44 44 44 45 46 47 49 49 49 49 51 52 52 53 52 51 50 48 47 47 46 45 44 43 42 43 43 43 42 42 41 41 42 41 40 40 40 40 40 39 39 39
40 42 43 43 45 45 46 49 50 51 51 52 51 51 51 51 50 49 48 47 46 46 46 45 44 45 45 44 45 44 44 44 44 44 44 43 42 41 40 40 40 39 39
36 39 41 41 42 43 45 48 49 50 50 50 49 50 50 50 50 50 49 49 48 47 47 46 46 46 47 47 46 46 46 46 46 46 45 44 44 43 42 41 41 40 40
31 34 36 37 40 42 44 46 47 48 48 48 49 50 51 51 51 50 50 50 51 50 49 48 48 49 49 48 48 48 48 48 47 47 46 45 45 44 43 42 42 41 40
30 31 34 36 38 41 43 44 45 46 48 49 50 51 52 52 52 52 52 52 52 52 52 52 51 51 50 50 49 49 49 49 48 46 46 44 44 44 43 42 42 41 40
29 30 32 34 36 37 40 42 43 45 47 48 49 51 51 52 54 55 54 53 53 53 53 52 52 51 50 49 50 51 51 50 49 48 48 46 45 44 43 42 41 40 40
28 30 32 34 36 38 40 42 45 46 48 49 51 52 53 54 55 56 55 54 54 55 55 55 54 53 52 50 51 51 51 50 50 51 49 47 46 44 43 43 42 41 40
30 32 34 36 37 39 41 43 45 47 49 50 52 54 54 55 56 56 56 56 57 57 57 57 57 55 54 53 53 52 52 51 50 50 48 47 46 45 44 43 43 41 40
32 34 36 37 40 42 43 45 47 49 51 52 54 56 57 57 58 59 60 59 60 59 59 58 58 57 57 56 56 55 55 54 52 49 48 47 46 45 45 44 42 41 40
36 37 39 40 42 43 45 47 49 51 53 55 56 56 58 59 60 61 62 63 62 62 62 61 60 59 59 59 59 58 57 55 52 51 49 48 47 46 45 44 43 42 40
40 42 44 45 47 48 50 52 55 57 58 59 60 60 61 62 63 64 64 65 66 66 66 64 62 61 61 61 61 60 58 57 54 52 50 48 48 46 45 43 42 41 39
47 49 51 52 54 55 56 57 59 60 61 62 63 63 64 65 67 68 68 68 68 68 68 67 66 65 64 63 62 60 59 58 55 52 51 50 49 47 45 43 41 40 38
54 55 57 59 60 61 62 63 64 64 63 64 65 66 67 68 69 70 71 70 70 70 70 69 68 66 65 64 63 61 60 58 55 54 53 51 49 47 45 43 41 39 38
59 61 63 64 66 67 68 68 68 67 67 67 67 68 69 71 72 73 73 72 70 69 69 68 67 66 65 64 63 61 60 57 56 55 53 51 49 46 44 42 40 38 36
Wind_Direction
245 245 244 244 245 246 246 246 246 246 248 249 250 252 254 255 257 259 260 263 265 267 270 271 274 276 278 281 284 286 289 292 294 296 299 301 304 306 308 310 312 313 315
243 243 243 244 245 246 246 247 247 247 248 249 251 252 254 255 256 258 260 262 264 266 269 271 273 274 276 279 282 285 288 290 292 294 296 298 300 302 305 307 309 310 312
241 242 242 243 244 245 246 247 247 248 249 250 251 251 253 254 256 258 260 262 264 265 268 271 273 274 275 278 282 284 286 289 291 293 295 296 297 299 302 304 305 308 310
241 241 242 243 245 245 246 247 247 248 249 250 251 252 253 255 257 258 259 261 263 265 267 270 271 272 274 277 281 284 285 287 289 291 292 294 294 296 298 301 302 305 307
242 243 242 243 245 245 246 247 248 248 249 251 252 253 254 255 256 258 259 261 263 265 266 268 269 271 272 275 279 282 284 285 287 288 290 291 291 293 295 297 300 302 305
241 242 242 244 245 245 245 247 249 250 251 252 252 253 255 257 257 259 261 262 263 264 266 267 268 269 272 274 278 280 282 284 285 286 288 288 288 290 292 295 297 300 303
238 240 242 243 244 245 246 247 249 250 252 252 254 256 257 258 260 261 261 261 262 263 265 267 268 269 272 274 277 278 280 282 283 285 285 285 286 288 290 293 296 298 301
238 239 241 242 243 244 246 248 250 251 253 253 255 257 258 259 261 261 261 262 263 264 265 267 269 270 271 273 275 277 278 280 281 283 283 283 284 286 289 292 294 297 299
238 240 240 241 242 244 246 249 252 252 253 254 255 256 257 259 261 262 262 262 263 264 265 266 268 270 272 274 275 276 278 279 280 281 281 281 283 285 288 291 293 295 297
238 242 243 243 243 243 245 248 251 252 252 254 255 257 258 259 260 261 262 263 263 264 266 267 269 271 271 273 275 275 277 277 278 279 279 280 282 285 288 290 292 294 296
239 241 244 244 244 244 245 247 251 251 253 255 256 258 259 259 260 261 261 262 263 265 266 268 271 272 271 271 273 275 276 276 277 278 280 281 283 284 286 289 290 292 294
241 242 244 245 245 245 246 248 251 253 254 255 256 258 259 260 261 260 261 261 263 265 266 268 269 269 270 271 273 274 275 275 276 277 280 281 283 283 285 287 289 291 293
242 242 243 245 247 247 247 249 250 252 254 256 257 258 259 259 260 262 262 262 264 264 265 266 267 267 269 270 271 272 273 274 276 277 280 281 281 282 284 286 287 289 291
242 242 244 246 247 248 250 250 251 251 254 255 256 258 259 260 261 261 261 262 263 262 263 265 265 266 268 269 270 271 272 273 275 276 277 278 279 281 282 284 286 288 290
243 243 245 247 249 250 250 250 251 252 253 255 256 256 258 258 259 260 261 262 264 264 264 265 265 266 266 268 269 270 271 273 274 274 275 276 277 278 279 282 284 286 289
243 243 245 248 251 251 252 252 253 254 254 256 257 256 258 259 259 260 261 263 265 265 265 266 267 267 267 268 269 270 271 273 274 275 274 275 276 276 277 280 281 284 287
246 248 250 251 250 252 253 254 255 255 256 257 257 258 259 260 260 261 263 265 266 266 267 268 267 267 267 268 269 269 270 270 272 272 273 273 274 274 276 278 281 283 286
252 253 254 254 253 256 257 257 258 257 258 258 258 258 260 260 260 262 264 264 264 266 267 268 267 267 267 268 268 268 269 269 269 269 271 271 272 273 275 277 280 282 285
259 260 260 259 259 260 260 261 261 261 262 262 262 262 262 262 262 263 264 264 264 265 265 266 266 266 266 267 267 268 268 267 268 269 270 270 271 273 274 275 277 280 283
265 264 265 265 265 265 265 264 263 263 263 264 264 264 265 265 264 263 263 263 264 264 264 265 265 265 265 265 266 266 265 266 268 269 269 269 271 272 272 273 275 277 280
272 272 272 271 271 269 269 268 267 266 265 266 266 265 265 265 265 264 264 264 264 264 264 264 264 263 264 265 265 265 265 265 266 267 268 269 270 271 271 273 274 275 278
278 276 276 275 273 272 271 271 270 269 268 268 268 268 267 265 265 266 265 264 263 263 263 263 263 263 263 263 263 263 263 263 264 265 266 267 268 269 270 271 272 273 275
283 281 278 276 275 275 274 273 272 272 271 270 269 268 266 265 265 264 264 263 263 262 262 262 262 262 261 260 260 261 261 261 262 263 264 265 266 267 269 270 271 272 274
285 283 281 279 278 277 276 275 274 273 272 270 268 267 266 265 265 264 264 263 262 261 261 260 260 259 259 259 259 259 259 260 260 260 261 262 263 265 266 267 268 270 272
287 285 284 283 281 280 278 276 275 274 273 271 270 268 267 266 266 265 264 263 262 260 259 259 258 257 257 258 258 257 257 257 257 257 258 260 260 261 263 265 266 268 269
290 288 287 285 284 283 281 279 276 275 273 272 271 270 268 267 266 266 265 263 261 259 256 256 255 254 254 254 254 254 254 255 255 256 256 257 258 259 261 262 263 264 265